User: anonymous
Location: Seagrave Observatory
(41.8500°N, 71.5833°W)
Time: 06:25:38
(UTC-04:00)
Language:

Iridium 21 - Orbit

View from above orbital plane
View from above orbital plane
View from above satellite
View from above satellite

Ground track
Ground track

The orbit data is extracted from the following two-line orbital elements,

1 25778U 99032B   14274.47360137  .00000271  00000-0  89609-4 0  9155
2 25778 086.3918 277.6432 0002553 104.1349 006.7615 14.34218144806252
Epoch (UTC): 01 October 2014 11:21:59
Eccentricity: 0.0002553
inclination: 86.3918°
perigee height: 776 km
apogee height: 779 km
right ascension of ascending node: 277.6432°
argument of perigee: 104.1349°
revolutions per day: 14.34218144
mean anomaly at epoch: 6.7615°
orbit number at epoch: 80625

The dashed part of the orbit path shows where the satellite is in the earth's shadow,  

DLR